Location: Newark
(47.5000°N, 4.6167°E)
Time: 09:25:51
(UTC+00:00)

ISS - Pass Details

Date: 06 December 2021
Orbit: 413 x 422 km, 51.6° (Epoch: 27 January)

Event Time Altitude Azimuth Distance (km) Brightness Sun altitude
Rises 18:24:59 0° 285° (WNW) 2,383 1.2 -25.1°
Reaches altitude 10° 18:27:47 10° 260° (W) 1,510 0.1 -25.6°
Maximum altitude 18:29:44 15° 225° (SW) 1,253 -0.8 -25.9°
Enters shadow 18:30:45 13° 204° (SSW) 1,324 -0.9 -26.1°
